User: anonymous   Login
Location: Caltech
(34.1382°N, 118.1253°W)
Time: 06:30:09
(UTC-07:00)
Language:

Cosmos 2322 - Orbit

View from above orbital plane
View from above orbital plane
View from above satellite
View from above satellite

Ground track
Ground track

The orbit data is extracted from the following two-line orbital elements,

1 23704U 95058A   16150.22455760 -.00000303  00000-0 -13580-3 0  9995
2 23704  70.9840 128.5567 0011975 304.9080  55.0915 14.13351487 61589
Epoch (UTC): 29 May 2016 05:23:21
Eccentricity: 0.0011975
inclination: 70.9840°
perigee height: 839 km
apogee height: 856 km
right ascension of ascending node: 128.5567°
argument of perigee: 304.9080°
revolutions per day: 14.13351487
mean anomaly at epoch: 55.0915°
orbit number at epoch: 6158

The dashed part of the orbit path shows where the satellite is in the earth's shadow,  

DLR